Погода в Соломинке

Россия / Пензенская область     53°10′58″N   42°38′48″E
темп.,
°C
ветер,
м/с
пор.,
м/с
влажн.,
%
обл.,
%
осадки,
мм/ч
давл.,
гПа
погр.,
м
23 апреля, пт
пт2300:00+9ююв3468100 0.0 102259
03:00+9ююв3569100 0.0 102183
06:00+8ююв4975100 0.0 1022198
09:00+12ююв696299 0.0 1022531
12:00+16ю564496 0.0 10202241
15:00+15ююв4653100 0.1 1019602
18:00+13юв366163 0.1 1017223
21:00+10ю228075 0.6 101734
24 апреля, сб
сб2400:00+9ю410885 0.0 1015273
03:00+7ююв49925 0.0 1014208
06:00+7ююв5119295 0.0 1012334
09:00+11ю6777100 0.2 1010710
12:00+12ююз7869100 0.9 10081315
15:00+4зсз61295100 3.6 1010555
18:00+7зюз477380 0.2 10091154
21:00+5зюз5127799 0.9 1010442
25 апреля, вс
вс2500:00+3зюз511765 0.0 1010307
03:00+3юз6127896 0.0 1010658
06:00+2з71396100 0.4 1010905
09:00+5зсз711685 1.1 1013964
12:00+8з8105199 0.1 10152014
15:00+8зюз91249100 1.0 10152285
18:00+7з711545 0.3 10161310
21:00+4ююз37715 0.3 1017135
26 апреля, пн
пн2600:00+4ююз6156744 0.0 1016427
03:00+4юз61367100 0.0 1016557
06:00+4зюз6981100 0.0 1017777
09:00+6зюз456488 0.0 1017921
12:00+7ююз5568100 0.1 10161074
15:00+5ююз3693100 2.0 1015640
18:00+5юз4590100 2.4 1014570
21:00+5юз249198 2.8 1014244
27 апреля, вт
вт2700:00+3юз4889100 0.6 1013200
03:00+2юз47900 0.6 1013156
06:00+2юз49855 0.0 1014280
09:00+6зюз68665 0.0 10141000
12:00+8з7847100 0.1 10142277
15:00+10з5737100 0.1 10142606
18:00+8зюз3551100 0.0 1014254
21:00+5зюз1160100 0.0 101410